Time,TemperatureF,DewpointF,PressureIn,WindDirection,WindDirectionDegrees,WindSpeedMPH,WindSpeedGustMPH,Humidity,HourlyPrecipIn,Conditions,Clouds,dailyrainin,SoftwareType,DateUTC
2015-02-27 00:00:00,59.1,56.2,30.03,NW,314,0.0,4.0,90,0.00,,---,0.44,VWS V14.01,2015-02-27 05:00:00,
2015-02-27 00:05:00,59.0,56.1,30.03,NW,311,3.0,3.0,90,0.00,,---,0.00,VWS V14.01,2015-02-27 05:05:00,
2015-02-27 00:10:00,59.0,56.1,30.03,NE,51,1.0,3.0,90,0.00,,---,0.00,VWS V14.01,2015-02-27 05:10:00,
2015-02-27 00:15:00,59.0,56.1,30.04,NW,318,0.0,4.0,90,0.00,,---,0.00,VWS V14.01,2015-02-27 05:15:00,
2015-02-27 00:20:00,59.0,56.1,30.04,NNE,29,0.0,7.0,90,0.00,,---,0.00,VWS V14.01,2015-02-27 05:20:00,
2015-02-27 00:25:00,59.0,56.1,30.03,WNW,301,0.0,7.0,90,0.00,,---,0.00,VWS V14.01,2015-02-27 05:25:00,
2015-02-27 00:30:00,59.0,55.8,30.03,NW,322,0.0,4.0,89,0.00,,---,0.00,VWS V14.01,2015-02-27 05:30:00,
2015-02-27 00:36:00,59.0,55.8,30.03,WNW,291,0.0,4.0,89,0.00,,---,0.00,VWS V14.01,2015-02-27 05:36:00,
2015-02-27 00:41:00,59.1,55.9,30.03,ENE,74,2.0,4.0,89,0.00,,---,0.00,VWS V14.01,2015-02-27 05:41:00,
2015-02-27 00:46:00,59.0,55.8,30.03,NNE,25,2.0,5.0,89,0.00,,---,0.00,VWS V14.01,2015-02-27 05:46:00,
2015-02-27 00:51:00,59.1,55.9,30.03,NNW,342,3.0,5.0,89,0.00,,---,0.00,VWS V14.01,2015-02-27 05:51:00,
2015-02-27 00:56:00,59.0,55.8,30.03,NNE,24,0.0,5.0,89,0.00,,---,0.00,VWS V14.01,2015-02-27 05:56:00,
2015-02-27 01:01:00,58.9,55.7,30.03,NW,311,1.0,1.0,89,0.00,,---,0.00,VWS V14.01,2015-02-27 06:01:00,
2015-02-27 01:06:00,58.9,55.7,30.03,NW,321,0.0,7.0,89,0.00,,---,0.00,VWS V14.01,2015-02-27 06:06:00,
2015-02-27 01:11:00,58.9,55.4,30.03,NW,309,0.0,7.0,88,0.00,,---,0.00,VWS V14.01,2015-02-27 06:11:00,
2015-02-27 01:16:00,58.9,55.4,30.03,NNW,334,2.0,7.0,88,0.00,,---,0.00,VWS V14.01,2015-02-27 06:16:00,
2015-02-27 01:21:00,58.8,55.3,30.03,NE,40,1.0,7.0,88,0.00,,---,0.00,VWS V14.01,2015-02-27 06:21:00,
2015-02-27 01:26:00,58.7,55.2,30.03,North,359,2.0,7.0,88,0.00,,---,0.00,VWS V14.01,2015-02-27 06:26:00,
2015-02-27 01:31:00,58.6,55.1,30.03,NNE,16,3.0,4.0,88,0.00,,---,0.00,VWS V14.01,2015-02-27 06:31:00,
2015-02-27 01:36:00,58.6,55.1,30.03,NW,319,2.0,5.0,88,0.00,,---,0.00,VWS V14.01,2015-02-27 06:36:00,
2015-02-27 01:41:00,58.4,54.9,30.03,NNW,336,0.0,5.0,88,0.00,,---,0.00,VWS V14.01,2015-02-27 06:41:00,
2015-02-27 01:46:00,58.4,54.9,30.02,East,89,0.0,5.0,88,0.00,,---,0.00,VWS V14.01,2015-02-27 06:46:00,
2015-02-27 01:51:00,58.3,54.8,30.02,NW,318,2.0,5.0,88,0.00,,---,0.00,VWS V14.01,2015-02-27 06:51:00,
2015-02-27 01:56:00,58.3,54.5,30.03,ENE,59,0.0,5.0,87,0.00,,---,0.00,VWS V14.01,2015-02-27 06:56:00,
2015-02-27 02:02:00,58.3,54.8,30.03,NNE,12,0.0,1.0,88,0.00,,---,0.00,VWS V14.01,2015-02-27 07:02:00,
2015-02-27 02:07:00,58.3,54.5,30.03,NW,314,0.0,3.0,87,0.00,,---,0.00,VWS V14.01,2015-02-27 07:07:00,
2015-02-27 02:12:00,58.4,54.9,30.03,ENE,60,0.0,3.0,88,0.00,,---,0.00,VWS V14.01,2015-02-27 07:12:00,
2015-02-27 02:17:00,58.4,54.5,30.02,NE,41,0.0,3.0,87,0.00,,---,0.00,VWS V14.01,2015-02-27 07:17:00,
2015-02-27 02:22:00,58.4,54.5,30.02,East,86,0.0,3.0,87,0.00,,---,0.00,VWS V14.01,2015-02-27 07:22:00,
2015-02-27 02:27:00,58.4,54.9,30.02,North,8,0.0,4.0,88,0.00,,---,0.00,VWS V14.01,2015-02-27 07:27:00,
2015-02-27 02:32:00,58.5,54.7,30.02,NW,326,0.0,1.0,87,0.00,,---,0.00,VWS V14.01,2015-02-27 07:32:00,
2015-02-27 02:37:00,58.5,54.7,30.02,NNW,328,0.0,3.0,87,0.00,,---,0.00,VWS V14.01,2015-02-27 07:37:00,
2015-02-27 02:42:00,58.5,55.0,30.02,NW,316,0.0,3.0,88,0.00,,---,0.00,VWS V14.01,2015-02-27 07:42:00,
2015-02-27 02:47:00,58.5,55.0,30.02,NNW,348,1.0,3.0,88,0.00,,---,0.00,VWS V14.01,2015-02-27 07:47:00,
2015-02-27 02:52:00,58.5,55.0,30.02,NE,42,0.0,3.0,88,0.00,,---,0.00,VWS V14.01,2015-02-27 07:52:00,
2015-02-27 02:57:00,58.4,54.9,30.02,NNW,330,0.0,3.0,88,0.00,,---,0.00,VWS V14.01,2015-02-27 07:57:00,
2015-02-27 03:02:00,58.3,54.8,30.02,NNW,327,0.0,3.0,88,0.00,,---,0.00,VWS V14.01,2015-02-27 08:02:00,
2015-02-27 03:07:00,58.3,54.8,30.02,ENE,63,0.0,3.0,88,0.00,,---,0.00,VWS V14.01,2015-02-27 08:07:00,
2015-02-27 03:12:00,58.3,54.8,30.02,NE,45,0.0,3.0,88,0.00,,---,0.00,VWS V14.01,2015-02-27 08:12:00,
2015-02-27 03:17:00,58.3,54.8,30.02,NNE,19,0.0,3.0,88,0.00,,---,0.00,VWS V14.01,2015-02-27 08:17:00,
2015-02-27 03:22:00,58.3,55.1,30.03,NW,318,0.0,3.0,89,0.00,,---,0.00,VWS V14.01,2015-02-27 08:22:00,
2015-02-27 03:28:00,58.5,55.0,30.02,NW,311,0.0,4.0,88,0.00,,---,0.00,VWS V14.01,2015-02-27 08:28:00,
2015-02-27 03:33:00,58.5,55.0,30.02,NNW,328,3.0,5.0,88,0.00,,---,0.00,VWS V14.01,2015-02-27 08:33:00,
2015-02-27 03:38:00,58.6,55.1,30.03,NNW,337,0.0,5.0,88,0.00,,---,0.00,VWS V14.01,2015-02-27 08:38:00,
2015-02-27 03:43:00,58.6,55.1,30.03,NW,314,1.0,5.0,88,0.00,,---,0.00,VWS V14.01,2015-02-27 08:43:00,
2015-02-27 03:48:00,58.5,55.0,30.03,NNE,23,1.0,5.0,88,0.00,,---,0.00,VWS V14.01,2015-02-27 08:48:00,
2015-02-27 03:53:00,58.4,54.9,30.03,NNW,332,1.0,5.0,88,0.00,,---,0.00,VWS V14.01,2015-02-27 08:53:00,
2015-02-27 03:58:00,58.3,54.5,30.03,NW,323,3.0,5.0,87,0.00,,---,0.00,VWS V14.01,2015-02-27 08:58:00,
2015-02-27 04:03:00,58.1,54.3,30.03,NE,55,1.0,4.0,87,0.00,,---,0.00,VWS V14.01,2015-02-27 09:03:00,
2015-02-27 04:08:00,58.0,54.5,30.03,NNW,339,1.0,4.0,88,0.00,,---,0.00,VWS V14.01,2015-02-27 09:08:00,
2015-02-27 04:13:00,57.9,54.4,30.03,NW,307,2.0,4.0,88,0.00,,---,0.00,VWS V14.01,2015-02-27 09:13:00,
2015-02-27 04:18:00,57.7,53.9,30.03,NNE,29,0.0,6.0,87,0.00,,---,0.00,VWS V14.01,2015-02-27 09:18:00,
2015-02-27 04:23:00,57.6,53.8,30.04,NNE,19,1.0,6.0,87,0.00,,---,0.00,VWS V14.01,2015-02-27 09:23:00,
2015-02-27 04:28:00,57.6,53.8,30.03,NE,43,1.0,6.0,87,0.00,,---,0.00,VWS V14.01,2015-02-27 09:28:00,
2015-02-27 04:33:00,57.5,53.7,30.04,NE,36,0.0,4.0,87,0.00,,---,0.00,VWS V14.01,2015-02-27 09:33:00,
2015-02-27 04:38:00,57.4,53.6,30.04,NNW,339,0.0,6.0,87,0.00,,---,0.00,VWS V14.01,2015-02-27 09:38:00,
2015-02-27 04:43:00,57.3,53.5,30.04,ENE,60,0.0,6.0,87,0.00,,---,0.00,VWS V14.01,2015-02-27 09:43:00,
2015-02-27 04:48:00,57.3,53.5,30.04,ENE,65,0.0,8.0,87,0.00,,---,0.00,VWS V14.01,2015-02-27 09:48:00,
2015-02-27 04:54:00,57.3,53.5,30.05,NNW,335,2.0,8.0,87,0.00,,---,0.00,VWS V14.01,2015-02-27 09:54:00,
2015-02-27 04:59:00,57.4,53.6,30.05,ENE,64,1.0,8.0,87,0.00,,---,0.00,VWS V14.01,2015-02-27 09:59:00,
2015-02-27 05:04:00,57.4,53.6,30.05,NW,315,1.0,7.0,87,0.00,,---,0.00,VWS V14.01,2015-02-27 10:04:00,
2015-02-27 05:09:00,57.4,53.6,30.06,NNE,13,0.0,7.0,87,0.00,,---,0.00,VWS V14.01,2015-02-27 10:09:00,
2015-02-27 05:14:00,57.5,53.7,30.05,NNW,341,0.0,7.0,87,0.00,,---,0.00,VWS V14.01,2015-02-27 10:14:00,
2015-02-27 05:19:00,57.5,53.7,30.05,NE,37,1.0,7.0,87,0.00,,---,0.00,VWS V14.01,2015-02-27 10:19:00,
2015-02-27 05:24:00,57.5,53.7,30.05,North,355,2.0,13.0,87,0.00,,---,0.00,VWS V14.01,2015-02-27 10:24:00,
2015-02-27 05:29:00,57.6,53.8,30.06,WNW,298,1.0,13.0,87,0.00,,---,0.00,VWS V14.01,2015-02-27 10:29:00,
2015-02-27 05:34:00,57.6,53.8,30.06,NE,47,2.0,4.0,87,0.00,,---,0.00,VWS V14.01,2015-02-27 10:34:00,
2015-02-27 05:39:00,57.6,53.8,30.06,NNW,342,0.0,4.0,87,0.00,,---,0.00,VWS V14.01,2015-02-27 10:39:00,
2015-02-27 05:44:00,57.6,53.8,30.06,NW,321,0.0,4.0,87,0.00,,---,0.00,VWS V14.01,2015-02-27 10:44:00,
2015-02-27 05:49:00,57.6,53.8,30.06,NW,314,2.0,8.0,87,0.00,,---,0.00,VWS V14.01,2015-02-27 10:49:00,
2015-02-27 05:54:00,57.6,53.8,30.06,NNW,335,3.0,8.0,87,0.00,,---,0.00,VWS V14.01,2015-02-27 10:54:00,
2015-02-27 05:59:00,57.6,53.8,30.07,ENE,63,2.0,8.0,87,0.00,,---,0.00,VWS V14.01,2015-02-27 10:59:00,
2015-02-27 06:04:00,57.6,53.8,30.07,NW,309,1.0,4.0,87,0.00,,---,0.00,VWS V14.01,2015-02-27 11:04:00,
2015-02-27 06:09:00,57.6,53.8,30.07,NW,321,2.0,5.0,87,0.00,,---,0.00,VWS V14.01,2015-02-27 11:09:00,
2015-02-27 06:14:00,57.6,53.8,30.07,West,269,4.0,5.0,87,0.00,,---,0.00,VWS V14.01,2015-02-27 11:14:00,
2015-02-27 06:20:00,57.6,53.8,30.08,North,356,1.0,6.0,87,0.00,,---,0.00,VWS V14.01,2015-02-27 11:20:00,
2015-02-27 06:25:00,57.6,53.8,30.08,ENE,57,2.0,6.0,87,0.00,,---,0.00,VWS V14.01,2015-02-27 11:25:00,
2015-02-27 06:30:00,57.6,53.8,30.08,NW,312,3.0,6.0,87,0.00,,---,0.00,VWS V14.01,2015-02-27 11:30:00,
2015-02-27 06:35:00,57.6,53.8,30.08,NNW,328,0.0,3.0,87,0.00,,---,0.00,VWS V14.01,2015-02-27 11:35:00,
2015-02-27 06:40:00,57.6,53.8,30.09,NW,321,1.0,5.0,87,0.00,,---,0.00,VWS V14.01,2015-02-27 11:40:00,
2015-02-27 06:45:00,57.6,53.8,30.09,WNW,300,1.0,5.0,87,0.00,,---,0.00,VWS V14.01,2015-02-27 11:45:00,
2015-02-27 06:50:00,57.7,53.9,30.10,North,8,4.0,5.0,87,0.00,,---,0.00,VWS V14.01,2015-02-27 11:50:00,
2015-02-27 06:55:00,57.8,54.0,30.10,NE,45,1.0,10.0,87,0.00,,---,0.00,VWS V14.01,2015-02-27 11:55:00,
2015-02-27 07:00:00,57.8,53.7,30.10,West,279,0.0,10.0,86,0.00,,---,0.00,VWS V14.01,2015-02-27 12:00:00,
2015-02-27 07:05:00,57.8,53.7,30.10,NNW,335,0.0,5.0,86,0.00,,---,0.00,VWS V14.01,2015-02-27 12:05:00,
2015-02-27 07:10:00,57.8,53.7,30.10,WNW,288,1.0,5.0,86,0.00,,---,0.00,VWS V14.01,2015-02-27 12:10:00,
2015-02-27 07:15:00,57.9,53.7,30.10,ENE,77,1.0,5.0,86,0.00,,---,0.00,VWS V14.01,2015-02-27 12:15:00,
2015-02-27 07:20:00,57.9,53.7,30.10,East,89,2.0,5.0,86,0.00,,---,0.00,VWS V14.01,2015-02-27 12:20:00,
2015-02-27 07:25:00,57.9,53.7,30.10,NNW,327,3.0,7.0,86,0.00,,---,0.00,VWS V14.01,2015-02-27 12:25:00,
2015-02-27 07:30:00,57.9,53.7,30.11,NNW,328,0.0,1.0,86,0.00,,---,0.00,VWS V14.01,2015-02-27 12:30:00,
2015-02-27 07:35:00,58.0,53.8,30.11,ESE,105,1.0,4.0,86,0.00,,---,0.00,VWS V14.01,2015-02-27 12:35:00,
2015-02-27 07:40:00,58.0,53.8,30.11,North,4,1.0,5.0,86,0.00,,---,0.00,VWS V14.01,2015-02-27 12:40:00,
2015-02-27 07:46:00,58.0,53.8,30.11,WNW,298,5.0,5.0,86,0.00,,---,0.00,VWS V14.01,2015-02-27 12:46:00,
2015-02-27 07:51:00,58.0,53.8,30.12,NNW,336,3.0,5.0,86,0.00,,---,0.00,VWS V14.01,2015-02-27 12:51:00,
2015-02-27 07:56:00,58.1,53.9,30.12,NNW,334,1.0,5.0,86,0.00,,---,0.00,VWS V14.01,2015-02-27 12:56:00,
2015-02-27 08:01:00,58.2,54.0,30.12,NW,311,2.0,2.0,86,0.00,,---,0.00,VWS V14.01,2015-02-27 13:01:00,
2015-02-27 08:06:00,58.2,54.0,30.13,North,350,1.0,6.0,86,0.00,,---,0.00,VWS V14.01,2015-02-27 13:06:00,
2015-02-27 08:11:00,58.3,54.1,30.13,NW,326,1.0,6.0,86,0.00,,---,0.00,VWS V14.01,2015-02-27 13:11:00,
2015-02-27 08:16:00,58.3,54.1,30.13,NW,309,0.0,6.0,86,0.00,,---,0.00,VWS V14.01,2015-02-27 13:16:00,
2015-02-27 08:21:00,58.3,54.1,30.14,North,349,0.0,6.0,86,0.00,,---,0.00,VWS V14.01,2015-02-27 13:21:00,
2015-02-27 08:26:00,58.3,54.1,30.14,NNW,336,3.0,6.0,86,0.00,,---,0.00,VWS V14.01,2015-02-27 13:26:00,
2015-02-27 08:31:00,58.3,54.1,30.14,NW,323,1.0,5.0,86,0.00,,---,0.00,VWS V14.01,2015-02-27 13:31:00,
2015-02-27 08:36:00,58.2,54.0,30.14,NNW,339,0.0,5.0,86,0.00,,---,0.00,VWS V14.01,2015-02-27 13:36:00,
2015-02-27 08:41:00,58.2,54.0,30.14,ENE,70,0.0,5.0,86,0.00,,---,0.00,VWS V14.01,2015-02-27 13:41:00,
2015-02-27 08:46:00,58.0,53.8,30.15,North,9,0.0,5.0,86,0.00,,---,0.00,VWS V14.01,2015-02-27 13:46:00,
2015-02-27 08:51:00,57.8,53.7,30.15,NW,326,6.0,6.0,86,0.00,,---,0.00,VWS V14.01,2015-02-27 13:51:00,
2015-02-27 08:56:00,57.8,53.7,30.15,North,352,0.0,6.0,86,0.00,,---,0.00,VWS V14.01,2015-02-27 13:56:00,
2015-02-27 09:01:00,57.8,53.7,30.15,NNE,15,0.0,2.0,86,0.00,,---,0.00,VWS V14.01,2015-02-27 14:01:00,
2015-02-27 09:06:00,57.8,53.7,30.15,NE,41,2.0,4.0,86,0.00,,---,0.00,VWS V14.01,2015-02-27 14:06:00,
2015-02-27 09:12:00,57.9,53.7,30.15,NNW,330,0.0,4.0,86,0.00,,---,0.00,VWS V14.01,2015-02-27 14:12:00,
2015-02-27 09:17:00,58.0,54.2,30.15,North,357,0.0,4.0,87,0.00,,---,0.00,VWS V14.01,2015-02-27 14:17:00,
2015-02-27 09:22:00,58.1,54.3,30.16,NNE,32,1.0,4.0,87,0.00,,---,0.00,VWS V14.01,2015-02-27 14:22:00,
2015-02-27 09:27:00,58.1,54.3,30.16,NNE,30,1.0,5.0,87,0.00,,---,0.00,VWS V14.01,2015-02-27 14:27:00,
2015-02-27 09:32:00,58.2,54.4,30.16,NE,41,0.0,2.0,87,0.00,,---,0.00,VWS V14.01,2015-02-27 14:32:00,
2015-02-27 09:37:00,58.4,54.5,30.16,NNW,342,0.0,4.0,87,0.00,,---,0.00,VWS V14.01,2015-02-27 14:37:00,
2015-02-27 09:42:00,58.5,54.7,30.17,North,11,6.0,6.0,87,0.00,,---,0.00,VWS V14.01,2015-02-27 14:42:00,
2015-02-27 09:47:00,58.7,54.8,30.17,NNE,16,1.0,6.0,87,0.00,,---,0.00,VWS V14.01,2015-02-27 14:47:00,
2015-02-27 09:52:00,58.7,54.8,30.17,NNE,26,0.0,7.0,87,0.00,,---,0.00,VWS V14.01,2015-02-27 14:52:00,
2015-02-27 09:57:00,58.8,55.0,30.17,NNW,339,0.0,7.0,87,0.00,,---,0.00,VWS V14.01,2015-02-27 14:57:00,
2015-02-27 10:02:00,58.8,55.0,30.17,NNW,333,1.0,6.0,87,0.00,,---,0.00,VWS V14.01,2015-02-27 15:02:00,
2015-02-27 10:07:00,58.9,55.0,30.17,ENE,72,1.0,6.0,87,0.00,,---,0.00,VWS V14.01,2015-02-27 15:07:00,
2015-02-27 10:12:00,58.9,55.0,30.17,NW,318,4.0,6.0,87,0.00,,---,0.00,VWS V14.01,2015-02-27 15:12:00,
2015-02-27 10:17:00,59.0,55.1,30.17,NNW,336,1.0,6.0,87,0.00,,---,0.00,VWS V14.01,2015-02-27 15:17:00,
2015-02-27 10:22:00,59.0,55.1,30.17,NNW,341,2.0,6.0,87,0.00,,---,0.00,VWS V14.01,2015-02-27 15:22:00,
2015-02-27 10:27:00,59.0,55.1,30.18,NNW,330,2.0,6.0,87,0.00,,---,0.00,VWS V14.01,2015-02-27 15:27:00,
2015-02-27 10:32:00,59.0,55.1,30.17,WNW,290,0.0,4.0,87,0.00,,---,0.00,VWS V14.01,2015-02-27 15:32:00,
2015-02-27 10:38:00,59.1,55.2,30.17,NE,40,2.0,7.0,87,0.00,,---,0.00,VWS V14.01,2015-02-27 15:38:00,
2015-02-27 10:43:00,59.1,55.2,30.17,NE,44,0.0,7.0,87,0.00,,---,0.00,VWS V14.01,2015-02-27 15:43:00,
2015-02-27 10:48:00,59.1,55.2,30.18,NNE,27,0.0,7.0,87,0.00,,---,0.00,VWS V14.01,2015-02-27 15:48:00,
2015-02-27 10:53:00,59.1,55.2,30.18,North,359,1.0,7.0,87,0.00,,---,0.00,VWS V14.01,2015-02-27 15:53:00,